Location: Guferjoch
(46.7462°N, 8.4506°E)
Time: 23:43:25
(UTC+00:00)

Cosmos 540 Rocket - Pass Details

Date: 14 July 2020
Orbit: 740 x 753 km, 74.1° (Epoch: 03 August)

Event Time Altitude Azimuth Distance (km) Brightness Sun altitude
Rises 02:50:21 0° 338° (NNW) 3,199 7.0 -8.3°
Reaches altitude 10° 02:52:43 10° 340° (NNW) 2,273 6.3 -8.0°
Maximum altitude 02:57:53 79° 68° (ENE) 767 3.7 -7.4°
Drops below altitude 10° 03:03:01 10° 155° (SSE) 2,265 5.8 -6.7°
Sets 03:05:23 0° 157° (SSE) 3,187 6.5 -6.4°
